User: anonymous   Login
Location: Unspecified
(0.0000°N, 0.0000°E)
Time: 16:36:25
(UTC+00:00)
Language:

COSMOS 2438 - Orbit

View from above orbital plane
View from above orbital plane
View from above satellite
View from above satellite

Ground track
Ground track

The orbit data is extracted from the following two-line orbital elements,

1 32955U 08025C   17204.90349457 +.00000005 +00000-0 -34791-4 0  9998
2 32955 082.4989 215.4375 0020324 196.9385 163.1021 12.43298970416083
Epoch (UTC): 23 July 2017 21:41:01
Eccentricity: 0.0020324
inclination: 82.4989°
perigee height: 1476 km
apogee height: 1508 km
right ascension of ascending node: 215.4375°
argument of perigee: 196.9385°
revolutions per day: 12.43298970
mean anomaly at epoch: 163.1021°
orbit number at epoch: 41608

The dashed part of the orbit path shows where the satellite is in the earth's shadow,  

DLR